Content
SEND FEEDBACK

Daily
Averages
Monthly
Summary
United States of America

CHICAGO, ILLINOIS


Home > North America > United States > Illinois
Elevation: 674 feet     Latitude: 41 59N     Longitude: 087 54W

WEATHER
 
SELECT A DAY
Number of Records: 194,820;   Date Range: 7/8/95 - 7/23/14
 
SHARE

PRINT THIS DATA

[ ← Previous Day ]
WEATHER ALMANAC - JANUARY 29, 2014
[ Next Day → ]
[ °C ]   °F
Weather ElementAverageHighLow
Temperature13.5 °F21.9 °F (8:52 pm)1 °F (1:52 am)
Dewpoint-0.8 °F7 °F (7:52 pm)-7.1 °F (1:52 am)
Humidity53.9 %69 % (1:52 am)38 % (12:52 pm)
Barometer30.17 in30.25 in (2:52 am)30.01 in (11:52 pm)
Wind Speed11.2 mph17.3 mph (8:52 pm)
Wind Gust24.2 mph (8:52 pm)
Weather ElementAverage
Visibility10 mi
Wind DirectionSW (222.2 °)

Weather ElementTotal
Precipitation---
Heating Degree Days53.6 (Base 65)
Averaged from 23 records on January 29, 2014
WEATHER CONDITIONS BREAKOUT
WIND DIRECTION BREAKOUT
WEATHER BY HOUR - JANUARY 29, 2014
[ °C ]   °F
Local TimeTemperatureDewpointHumidityBarometerVisibilityWind DirectionWind SpeedGust SpeedPrecipitationEventsConditions
1:52 AM1.0 °F-7.1 °F69 %30.24 in10.0 miSW (230°)5.8 mphClear
2:52 AM1.9 °F-6.0 °F69 %30.25 in10.0 miWSW (240°)6.9 mphClear
3:52 AM3.0 °F-6.0 °F66 %30.23 in10.0 miWSW (240°)8.1 mphClear
4:52 AM3.0 °F-6.0 °F66 %30.24 in10.0 miWSW (240°)8.1 mphClear
5:52 AM3.0 °F-6.0 °F66 %30.23 in10.0 miWSW (240°)9.2 mphClear
6:52 AM1.9 °F-7.1 °F66 %30.23 in10.0 miWSW (240°)6.9 mphClear
7:52 AM3.0 °F-7.1 °F63 %30.24 in10.0 miWSW (240°)10.4 mphClear
8:52 AM7.0 °F-6.0 °F55 %30.24 in10.0 miWSW (250°)8.1 mphClear
9:52 AM10.9 °F-5.1 °F49 %30.24 in10.0 miWSW (240°)12.7 mph19.6 mphClear
10:52 AM14.0 °F-4.0 °F45 %30.23 in10.0 miWSW (250°)12.7 mph20.7 mphClear
11:52 AM16.0 °F-2.9 °F43 %30.21 in10.0 miWSW (240°)12.7 mphClear
12:52 PM19.0 °F-2.9 °F38 %30.19 in10.0 miWSW (250°)16.1 mphClear
1:52 PM19.9 °F-0.9 °F40 %30.18 in10.0 miWSW (240°)12.7 mph20.7 mphClear
2:52 PM19.9 °F1.0 °F44 %30.17 in10.0 miSW (220°)11.5 mph20.7 mphClear
3:52 PM21.0 °F1.9 °F44 %30.15 in10.0 miSW (220°)10.4 mph19.6 mphClear
4:52 PM21.0 °F3.9 °F48 %30.15 in10.0 miSSW (200°)12.7 mphClear
5:52 PM21.0 °F5.0 °F50 %30.14 in10.0 miSSW (200°)8.1 mphClear
6:52 PM19.0 °F6.1 °F57 %30.11 in10.0 miSouth (180°)10.4 mphClear
7:52 PM19.0 °F7.0 °F59 %30.08 in10.0 miSouth (180°)11.5 mphClear
8:52 PM21.9 °F6.1 °F51 %30.07 in10.0 miSSW (200°)17.3 mph24.2 mphClear
9:52 PM21.9 °F6.1 °F51 %30.05 in10.0 miSouth (190°)15.0 mphClear
10:52 PM21.9 °F5.0 °F48 %30.04 in10.0 miSouth (190°)15.0 mphClear
11:52 PM21.0 °F6.1 °F53 %30.01 in10.0 miSouth (190°)15.0 mphClear
Hourly data recorded from KPWK, located miles away from Chicago, Illinois







STORIES FROM OUR PARTNERS